Time,TemperatureF,DewpointF,PressureIn,WindDirection,WindDirectionDegrees,WindSpeedMPH,WindSpeedGustMPH,Humidity,HourlyPrecipIn,Conditions,Clouds,dailyrainin,SolarRadiationWatts/m^2,SoftwareType,DateUTC
2013-02-02 00:00:00,45.1,40.2,31.13,NNW,348,0.0,0.0,83,0.00,,,0.00,0,Wunderground v.1.15,2013-02-02 08:00:00,
2013-02-02 00:06:00,45.0,40.1,31.13,NNW,348,0.0,0.0,83,0.00,,,0.00,0,Wunderground v.1.15,2013-02-02 08:06:00,
2013-02-02 00:12:00,44.9,40.0,31.12,NNW,348,0.0,0.0,83,0.00,,,0.00,0,Wunderground v.1.15,2013-02-02 08:12:00,
2013-02-02 00:18:00,44.9,40.0,31.13,NNW,348,0.0,0.0,83,0.00,,,0.00,0,Wunderground v.1.15,2013-02-02 08:18:00,
2013-02-02 00:24:00,45.0,40.5,31.13,NNW,348,0.0,0.0,84,0.00,,,0.00,0,Wunderground v.1.15,2013-02-02 08:24:00,
2013-02-02 00:30:00,45.0,40.5,31.13,NNW,348,0.0,0.0,84,0.00,,,0.00,0,Wunderground v.1.15,2013-02-02 08:30:00,
2013-02-02 00:36:00,45.0,40.5,31.13,NNW,348,0.0,0.0,84,0.00,,,0.00,0,Wunderground v.1.15,2013-02-02 08:36:00,
2013-02-02 00:42:00,45.0,40.5,31.13,NNW,348,0.0,0.0,84,0.00,,,0.00,0,Wunderground v.1.15,2013-02-02 08:42:00,
2013-02-02 00:48:00,44.9,40.4,31.13,NNW,348,0.0,0.0,84,0.00,,,0.00,0,Wunderground v.1.15,2013-02-02 08:48:00,
2013-02-02 00:54:00,44.7,40.2,31.13,NNW,348,0.0,0.0,84,0.00,,,0.00,0,Wunderground v.1.15,2013-02-02 08:54:00,
2013-02-02 01:00:00,44.5,40.0,31.13,NNW,348,0.0,0.0,84,0.00,,,0.00,0,Wunderground v.1.15,2013-02-02 09:00:00,
2013-02-02 01:06:00,44.4,39.9,31.13,NNW,348,0.0,0.0,84,0.00,,,0.00,0,Wunderground v.1.15,2013-02-02 09:06:00,
2013-02-02 01:12:00,44.2,39.7,31.13,NNW,348,0.0,0.0,84,0.00,,,0.00,0,Wunderground v.1.15,2013-02-02 09:12:00,
2013-02-02 01:18:00,44.1,39.6,31.13,NNW,348,0.0,0.0,84,0.00,,,0.00,0,Wunderground v.1.15,2013-02-02 09:18:00,
2013-02-02 01:24:00,44.0,39.5,31.14,NNW,348,0.0,0.0,84,0.00,,,0.00,0,Wunderground v.1.15,2013-02-02 09:24:00,
2013-02-02 01:30:00,43.9,39.4,31.15,NNW,348,0.0,0.0,84,0.00,,,0.00,0,Wunderground v.1.15,2013-02-02 09:30:00,
2013-02-02 01:36:00,43.9,39.4,31.15,NNW,348,0.0,0.0,84,0.00,,,0.00,0,Wunderground v.1.15,2013-02-02 09:36:00,
2013-02-02 01:42:00,43.8,39.3,31.15,NNW,348,0.0,0.0,84,0.00,,,0.00,0,Wunderground v.1.15,2013-02-02 09:42:00,
2013-02-02 01:48:00,43.8,39.3,31.15,NNW,348,0.0,0.0,84,0.00,,,0.00,0,Wunderground v.1.15,2013-02-02 09:48:00,
2013-02-02 01:54:00,43.7,39.2,31.15,NNW,348,0.0,0.0,84,0.00,,,0.00,0,Wunderground v.1.15,2013-02-02 09:54:00,
2013-02-02 02:00:00,43.6,39.1,31.15,NNW,348,0.0,0.0,84,0.00,,,0.00,0,Wunderground v.1.15,2013-02-02 10:00:00,
2013-02-02 02:06:00,43.7,39.5,31.15,NNW,348,0.0,0.0,85,0.00,,,0.00,0,Wunderground v.1.15,2013-02-02 10:06:00,
2013-02-02 02:12:00,43.7,39.5,31.15,NNW,348,0.0,0.0,85,0.00,,,0.00,0,Wunderground v.1.15,2013-02-02 10:12:00,
2013-02-02 02:18:00,43.7,39.5,31.15,NNW,348,0.0,0.0,85,0.00,,,0.00,0,Wunderground v.1.15,2013-02-02 10:18:00,
2013-02-02 02:24:00,43.9,39.7,31.15,NNW,348,0.0,0.0,85,0.00,,,0.00,0,Wunderground v.1.15,2013-02-02 10:24:00,
2013-02-02 02:30:00,44.1,40.2,31.15,NNW,348,0.0,0.0,86,0.00,,,0.00,0,Wunderground v.1.15,2013-02-02 10:30:00,
2013-02-02 02:36:00,44.7,40.8,31.15,NNW,348,0.0,0.0,86,0.00,,,0.00,0,Wunderground v.1.15,2013-02-02 10:36:00,
2013-02-02 02:42:00,45.3,41.7,31.15,NNW,348,0.0,1.0,87,0.00,,,0.00,0,Wunderground v.1.15,2013-02-02 10:42:00,
2013-02-02 02:48:00,45.7,42.1,31.15,NNW,348,0.0,1.0,87,0.00,,,0.00,0,Wunderground v.1.15,2013-02-02 10:48:00,
2013-02-02 02:54:00,45.9,42.2,31.15,NNW,348,0.0,0.0,87,0.00,,,0.00,0,Wunderground v.1.15,2013-02-02 10:54:00,
2013-02-02 03:00:00,46.0,42.3,31.15,NNW,348,0.0,0.0,87,0.00,,,0.00,0,Wunderground v.1.15,2013-02-02 11:00:00,
2013-02-02 03:06:00,46.1,42.4,31.15,NNW,348,0.0,0.0,87,0.00,,,0.00,0,Wunderground v.1.15,2013-02-02 11:06:00,
2013-02-02 03:12:00,46.1,42.4,31.15,NNW,348,0.0,0.0,87,0.00,,,0.00,0,Wunderground v.1.15,2013-02-02 11:12:00,
2013-02-02 03:18:00,46.1,42.4,31.15,NNW,348,0.0,0.0,87,0.00,,,0.00,0,Wunderground v.1.15,2013-02-02 11:18:00,
2013-02-02 03:26:00,46.0,42.3,31.15,NNW,348,0.0,0.0,87,0.00,,,0.00,0,Wunderground v.1.15,2013-02-02 11:26:00,
2013-02-02 03:32:00,46.0,42.3,31.15,NNW,348,0.0,0.0,87,0.00,,,0.00,0,Wunderground v.1.15,2013-02-02 11:32:00,
2013-02-02 03:38:00,45.9,42.2,31.15,NNW,348,0.0,0.0,87,0.00,,,0.00,0,Wunderground v.1.15,2013-02-02 11:38:00,
2013-02-02 03:44:00,45.8,42.2,31.15,NNW,348,0.0,0.0,87,0.00,,,0.00,0,Wunderground v.1.15,2013-02-02 11:44:00,
2013-02-02 03:50:00,45.9,42.2,31.15,NNW,348,0.0,0.0,87,0.00,,,0.00,0,Wunderground v.1.15,2013-02-02 11:50:00,
2013-02-02 03:56:00,46.0,42.3,31.15,NNW,348,0.0,0.0,87,0.00,,,0.00,0,Wunderground v.1.15,2013-02-02 11:56:00,
2013-02-02 04:02:00,45.9,42.2,31.15,NNW,348,0.0,0.0,87,0.00,,,0.00,0,Wunderground v.1.15,2013-02-02 12:02:00,
2013-02-02 04:08:00,45.9,42.2,31.15,NNW,348,0.0,0.0,87,0.00,,,0.00,0,Wunderground v.1.15,2013-02-02 12:08:00,
2013-02-02 04:14:00,45.9,42.2,31.15,NNW,348,0.0,0.0,87,0.00,,,0.00,0,Wunderground v.1.15,2013-02-02 12:14:00,
2013-02-02 04:20:00,45.9,42.2,31.15,NNW,348,0.0,0.0,87,0.00,,,0.00,0,Wunderground v.1.15,2013-02-02 12:20:00,
2013-02-02 04:26:00,45.9,42.2,31.15,NNW,348,0.0,0.0,87,0.00,,,0.00,0,Wunderground v.1.15,2013-02-02 12:26:00,
2013-02-02 04:32:00,45.9,42.2,31.14,NNW,348,0.0,0.0,87,0.00,,,0.00,0,Wunderground v.1.15,2013-02-02 12:32:00,
2013-02-02 04:38:00,45.9,42.5,31.14,NNW,348,0.0,0.0,88,0.00,,,0.00,0,Wunderground v.1.15,2013-02-02 12:38:00,
2013-02-02 04:44:00,46.0,42.6,31.14,NNW,348,0.0,0.0,88,0.00,,,0.00,0,Wunderground v.1.15,2013-02-02 12:44:00,
2013-02-02 04:50:00,46.2,42.8,31.14,NNW,348,0.0,0.0,88,0.00,,,0.00,0,Wunderground v.1.15,2013-02-02 12:50:00,
2013-02-02 04:56:00,46.2,42.8,31.14,NNW,348,0.0,0.0,88,0.00,,,0.00,0,Wunderground v.1.15,2013-02-02 12:56:00,
2013-02-02 05:02:00,46.3,42.9,31.15,NNW,348,0.0,0.0,88,0.00,,,0.00,0,Wunderground v.1.15,2013-02-02 13:02:00,
2013-02-02 05:08:00,46.3,42.9,31.15,NNW,348,0.0,0.0,88,0.00,,,0.00,0,Wunderground v.1.15,2013-02-02 13:08:00,
2013-02-02 05:14:00,46.3,42.9,31.14,NNW,348,0.0,0.0,88,0.00,,,0.00,0,Wunderground v.1.15,2013-02-02 13:14:00,
2013-02-02 05:20:00,46.2,42.8,31.14,NNW,348,0.0,0.0,88,0.00,,,0.00,0,Wunderground v.1.15,2013-02-02 13:20:00,
2013-02-02 05:26:00,46.1,42.7,31.14,NNW,348,0.0,0.0,88,0.00,,,0.00,0,Wunderground v.1.15,2013-02-02 13:26:00,
2013-02-02 05:32:00,46.0,42.6,31.14,NNW,348,0.0,0.0,88,0.00,,,0.00,0,Wunderground v.1.15,2013-02-02 13:32:00,
2013-02-02 05:38:00,45.9,42.5,31.14,NNW,348,0.0,0.0,88,0.00,,,0.00,0,Wunderground v.1.15,2013-02-02 13:38:00,
2013-02-02 05:44:00,45.8,42.4,31.14,NNW,348,0.0,0.0,88,0.00,,,0.00,0,Wunderground v.1.15,2013-02-02 13:44:00,
2013-02-02 05:50:00,45.7,42.3,31.14,NNW,348,0.0,0.0,88,0.00,,,0.00,0,Wunderground v.1.15,2013-02-02 13:50:00,
2013-02-02 05:56:00,45.6,42.3,31.15,NNW,348,0.0,0.0,88,0.00,,,0.00,0,Wunderground v.1.15,2013-02-02 13:56:00,
2013-02-02 06:02:00,45.5,42.2,31.15,NNW,348,0.0,0.0,88,0.00,,,0.00,0,Wunderground v.1.15,2013-02-02 14:02:00,
2013-02-02 06:08:00,45.5,42.2,31.15,NNW,348,0.0,0.0,88,0.00,,,0.00,0,Wunderground v.1.15,2013-02-02 14:08:00,
2013-02-02 06:14:00,45.4,42.1,31.15,NNW,348,0.0,0.0,88,0.00,,,0.00,0,Wunderground v.1.15,2013-02-02 14:14:00,
2013-02-02 06:20:00,45.4,42.1,31.15,NNW,348,0.0,0.0,88,0.00,,,0.00,0,Wunderground v.1.15,2013-02-02 14:20:00,
2013-02-02 06:26:00,45.5,42.2,31.16,NNW,348,0.0,0.0,88,0.00,,,0.00,0,Wunderground v.1.15,2013-02-02 14:26:00,
2013-02-02 06:32:00,45.5,42.2,31.16,NNW,348,0.0,0.0,88,0.00,,,0.00,0,Wunderground v.1.15,2013-02-02 14:32:00,
2013-02-02 06:38:00,45.6,42.3,31.16,NNW,348,0.0,0.0,88,0.00,,,0.00,0,Wunderground v.1.15,2013-02-02 14:38:00,
2013-02-02 06:44:00,45.6,42.3,31.16,NNW,348,0.0,0.0,88,0.00,,,0.00,0,Wunderground v.1.15,2013-02-02 14:44:00,
2013-02-02 06:50:00,45.7,42.3,31.16,NNW,348,0.0,0.0,88,0.00,,,0.00,0,Wunderground v.1.15,2013-02-02 14:50:00,
2013-02-02 06:56:00,45.7,42.3,31.17,NNW,348,0.0,0.0,88,0.00,,,0.00,0,Wunderground v.1.15,2013-02-02 14:56:00,
2013-02-02 07:02:00,45.7,42.3,31.17,NNW,348,0.0,0.0,88,0.00,,,0.00,0,Wunderground v.1.15,2013-02-02 15:02:00,
2013-02-02 07:08:00,45.8,42.4,31.17,NNW,348,0.0,0.0,88,0.00,,,0.00,0,Wunderground v.1.15,2013-02-02 15:08:00,
2013-02-02 07:14:00,45.8,42.4,31.17,NNW,348,0.0,0.0,88,0.00,,,0.00,0,Wunderground v.1.15,2013-02-02 15:14:00,
2013-02-02 07:20:00,45.9,42.5,31.18,NNW,348,0.0,0.0,88,0.00,,,0.00,0,Wunderground v.1.15,2013-02-02 15:20:00,
2013-02-02 07:26:00,46.1,42.7,31.18,NNW,348,0.0,0.0,88,0.00,,,0.00,0,Wunderground v.1.15,2013-02-02 15:26:00,
2013-02-02 07:32:00,46.3,43.2,31.18,NNW,348,0.0,0.0,89,0.00,,,0.00,9,Wunderground v.1.15,2013-02-02 15:32:00,
2013-02-02 07:38:00,46.5,43.4,31.18,NNW,348,0.0,0.0,89,0.00,,,0.00,12,Wunderground v.1.15,2013-02-02 15:38:00,
2013-02-02 07:44:00,46.6,43.5,31.18,NNW,348,0.0,0.0,89,0.00,,,0.00,21,Wunderground v.1.15,2013-02-02 15:44:00,
2013-02-02 07:50:00,46.7,43.6,31.18,NNW,348,0.0,0.0,89,0.00,,,0.00,26,Wunderground v.1.15,2013-02-02 15:50:00,
2013-02-02 07:56:00,46.9,43.8,31.19,NNW,348,0.0,0.0,89,0.00,,,0.00,30,Wunderground v.1.15,2013-02-02 15:56:00,
2013-02-02 08:02:00,47.0,43.9,31.19,NNW,348,0.0,0.0,89,0.00,,,0.00,32,Wunderground v.1.15,2013-02-02 16:02:00,
2013-02-02 08:08:00,47.1,44.0,31.19,NNW,348,0.0,0.0,89,0.00,,,0.00,35,Wunderground v.1.15,2013-02-02 16:08:00,
2013-02-02 08:14:00,47.2,44.1,31.19,NNW,348,0.0,0.0,89,0.00,,,0.00,39,Wunderground v.1.15,2013-02-02 16:14:00,
2013-02-02 08:20:00,47.4,44.3,31.19,NNW,348,0.0,0.0,89,0.00,,,0.00,46,Wunderground v.1.15,2013-02-02 16:20:00,
2013-02-02 08:26:00,47.5,44.4,31.20,NNW,348,0.0,0.0,89,0.00,,,0.00,53,Wunderground v.1.15,2013-02-02 16:26:00,
2013-02-02 08:32:00,47.6,44.5,31.20,NNW,348,0.0,0.0,89,0.00,,,0.00,63,Wunderground v.1.15,2013-02-02 16:32:00,
2013-02-02 08:38:00,47.9,44.8,31.20,NNW,348,0.0,0.0,89,0.00,,,0.00,72,Wunderground v.1.15,2013-02-02 16:38:00,
2013-02-02 08:44:00,48.0,44.9,31.20,NNW,348,0.0,0.0,89,0.00,,,0.00,84,Wunderground v.1.15,2013-02-02 16:44:00,
2013-02-02 08:50:00,48.2,45.1,31.20,NNW,348,0.0,0.0,89,0.00,,,0.00,83,Wunderground v.1.15,2013-02-02 16:50:00,
2013-02-02 08:56:00,48.4,45.3,31.21,NNW,348,0.0,0.0,89,0.00,,,0.00,93,Wunderground v.1.15,2013-02-02 16:56:00,
2013-02-02 09:02:00,48.6,45.5,31.21,NNW,348,0.0,2.0,89,0.00,,,0.00,98,Wunderground v.1.15,2013-02-02 17:02:00,
2013-02-02 09:08:00,48.8,45.7,31.20,NNW,348,0.0,2.0,89,0.00,,,0.00,113,Wunderground v.1.15,2013-02-02 17:08:00,
2013-02-02 09:14:00,49.0,45.9,31.20,NNW,348,0.0,0.0,89,0.00,,,0.00,107,Wunderground v.1.15,2013-02-02 17:14:00,
2013-02-02 09:20:00,49.2,46.1,31.20,NNW,348,0.0,0.0,89,0.00,,,0.00,116,Wunderground v.1.15,2013-02-02 17:20:00,
2013-02-02 09:26:00,49.4,46.6,31.20,NNW,348,0.0,0.0,90,0.00,,,0.00,104,Wunderground v.1.15,2013-02-02 17:26:00,
2013-02-02 09:32:00,49.6,46.8,31.20,NNW,348,0.0,0.0,90,0.00,,,0.00,98,Wunderground v.1.15,2013-02-02 17:32:00,
2013-02-02 09:38:00,49.8,47.0,31.20,NNW,348,0.0,1.0,90,0.00,,,0.00,107,Wunderground v.1.15,2013-02-02 17:38:00,
2013-02-02 09:44:00,49.8,46.7,31.20,NNW,348,1.0,1.0,89,0.00,,,0.00,116,Wunderground v.1.15,2013-02-02 17:44:00,
2013-02-02 09:50:00,49.9,46.8,31.20,NNW,348,0.0,0.0,89,0.00,,,0.00,116,Wunderground v.1.15,2013-02-02 17:50:00,
2013-02-02 09:56:00,49.9,46.8,31.20,NNW,348,0.0,0.0,89,0.00,,,0.00,100,Wunderground v.1.15,2013-02-02 17:56:00,
2013-02-02 10:02:00,50.0,47.2,31.20,NNW,348,0.0,0.0,90,0.00,,,0.00,121,Wunderground v.1.15,2013-02-02 18:02:00,
2013-02-02 10:08:00,50.1,47.3,31.20,NNW,348,0.0,0.0,90,0.00,,,0.00,130,Wunderground v.1.15,2013-02-02 18:08:00,
2013-02-02 10:14:00,50.1,47.0,31.20,NNW,348,1.0,2.0,89,0.00,,,0.00,127,Wunderground v.1.15,2013-02-02 18:14:00,
2013-02-02 10:20:00,50.0,46.9,31.20,NNW,348,1.0,1.0,89,0.00,,,0.00,116,Wunderground v.1.15,2013-02-02 18:20:00,
2013-02-02 10:26:00,50.1,47.0,31.20,NNW,348,0.0,1.0,89,0.00,,,0.00,142,Wunderground v.1.15,2013-02-02 18:26:00,
2013-02-02 10:32:00,50.3,47.2,31.20,NNW,348,0.0,0.0,89,0.00,,,0.00,144,Wunderground v.1.15,2013-02-02 18:32:00,
2013-02-02 10:38:00,50.3,47.2,31.20,NNW,348,1.0,2.0,89,0.00,,,0.00,137,Wunderground v.1.15,2013-02-02 18:38:00,
2013-02-02 10:44:00,50.4,47.3,31.20,NNW,348,0.0,1.0,89,0.00,,,0.00,257,Wunderground v.1.15,2013-02-02 18:44:00,
2013-02-02 10:50:00,50.6,47.5,31.21,NNW,348,1.0,1.0,89,0.00,,,0.00,311,Wunderground v.1.15,2013-02-02 18:50:00,
2013-02-02 10:56:00,50.8,47.7,31.21,NNW,348,1.0,1.0,89,0.00,,,0.00,346,Wunderground v.1.15,2013-02-02 18:56:00,
2013-02-02 11:02:00,51.2,48.1,31.21,NNW,348,0.0,0.0,89,0.00,,,0.00,199,Wunderground v.1.15,2013-02-02 19:02:00,
2013-02-02 11:08:00,51.5,48.4,31.21,NNW,348,0.0,1.0,89,0.00,,,0.00,200,Wunderground v.1.15,2013-02-02 19:08:00,
2013-02-02 11:14:00,51.8,48.7,31.21,NNW,348,0.0,1.0,89,0.00,,,0.00,211,Wunderground v.1.15,2013-02-02 19:14:00,
2013-02-02 11:20:00,51.9,48.5,31.21,NNW,348,1.0,1.0,88,0.00,,,0.00,237,Wunderground v.1.15,2013-02-02 19:20:00,
2013-02-02 11:26:00,51.9,48.2,31.21,NNW,348,2.0,2.0,87,0.00,,,0.00,276,Wunderground v.1.15,2013-02-02 19:26:00,
2013-02-02 11:32:00,52.1,48.3,31.21,NNW,348,1.0,2.0,87,0.00,,,0.00,343,Wunderground v.1.15,2013-02-02 19:32:00,
2013-02-02 11:38:00,52.6,48.8,31.20,NNW,348,0.0,2.0,87,0.00,,,0.00,350,Wunderground v.1.15,2013-02-02 19:38:00,
2013-02-02 11:44:00,52.9,48.8,31.20,NNW,348,1.0,1.0,86,0.00,,,0.00,330,Wunderground v.1.15,2013-02-02 19:44:00,
2013-02-02 11:50:00,53.3,49.2,31.20,NNW,348,2.0,2.0,86,0.00,,,0.00,329,Wunderground v.1.15,2013-02-02 19:50:00,
2013-02-02 11:56:00,53.6,49.2,31.20,NNW,348,1.0,2.0,85,0.00,,,0.00,308,Wunderground v.1.15,2013-02-02 19:56:00,
2013-02-02 12:02:00,53.9,49.2,31.19,NNW,348,1.0,1.0,84,0.00,,,0.00,302,Wunderground v.1.15,2013-02-02 20:02:00,
2013-02-02 12:08:00,54.2,49.1,31.19,NNW,348,1.0,1.0,83,0.00,,,0.00,311,Wunderground v.1.15,2013-02-02 20:08:00,
2013-02-02 12:14:00,54.6,49.2,31.19,NNW,348,0.0,1.0,82,0.00,,,0.00,339,Wunderground v.1.15,2013-02-02 20:14:00,
2013-02-02 12:20:00,55.1,49.4,31.19,NNW,348,1.0,1.0,81,0.00,,,0.00,461,Wunderground v.1.15,2013-02-02 20:20:00,
2013-02-02 12:26:00,55.5,49.4,31.18,NNW,348,1.0,1.0,80,0.00,,,0.00,494,Wunderground v.1.15,2013-02-02 20:26:00,
2013-02-02 12:32:00,56.0,49.6,31.18,NNW,348,1.0,1.0,79,0.00,,,0.00,580,Wunderground v.1.15,2013-02-02 20:32:00,
2013-02-02 12:38:00,56.6,49.8,31.18,NNW,348,1.0,2.0,78,0.00,,,0.00,652,Wunderground v.1.15,2013-02-02 20:38:00,
2013-02-02 12:44:00,57.5,50.0,31.17,NNW,348,1.0,2.0,76,0.00,,,0.00,410,Wunderground v.1.15,2013-02-02 20:44:00,
2013-02-02 12:50:00,57.8,49.6,31.17,NNW,348,1.0,1.0,74,0.00,,,0.00,381,Wunderground v.1.15,2013-02-02 20:50:00,
2013-02-02 12:56:00,57.9,49.3,31.17,NNW,348,1.0,1.0,73,0.00,,,0.00,380,Wunderground v.1.15,2013-02-02 20:56:00,
2013-02-02 13:02:00,57.9,49.3,31.16,North,350,1.0,1.0,73,0.00,,,0.00,334,Wunderground v.1.15,2013-02-02 21:02:00,
2013-02-02 13:08:00,57.8,49.2,31.16,NNE,12,1.0,2.0,73,0.00,,,0.00,369,Wunderground v.1.15,2013-02-02 21:08:00,
2013-02-02 13:14:00,57.8,49.2,31.15,NNE,13,1.0,2.0,73,0.00,,,0.00,461,Wunderground v.1.15,2013-02-02 21:14:00,
2013-02-02 13:20:00,57.8,48.8,31.15,NNE,13,1.0,3.0,72,0.00,,,0.00,360,Wunderground v.1.15,2013-02-02 21:20:00,
2013-02-02 13:26:00,57.5,48.5,31.15,NNE,17,1.0,3.0,72,0.00,,,0.00,394,Wunderground v.1.15,2013-02-02 21:26:00,
2013-02-02 13:32:00,57.3,48.3,31.15,NE,55,2.0,4.0,72,0.00,,,0.00,387,Wunderground v.1.15,2013-02-02 21:32:00,
2013-02-02 13:38:00,57.5,48.9,31.15,NE,55,1.0,4.0,73,0.00,,,0.00,383,Wunderground v.1.15,2013-02-02 21:38:00,
2013-02-02 13:44:00,57.7,49.1,31.15,NE,55,1.0,2.0,73,0.00,,,0.00,378,Wunderground v.1.15,2013-02-02 21:44:00,
2013-02-02 13:50:00,57.8,48.8,31.14,ENE,64,1.0,2.0,72,0.00,,,0.00,341,Wunderground v.1.15,2013-02-02 21:50:00,
2013-02-02 13:56:00,57.9,48.9,31.14,ENE,65,1.0,3.0,72,0.00,,,0.00,380,Wunderground v.1.15,2013-02-02 21:56:00,
2013-02-02 14:02:00,57.9,48.9,31.14,ENE,65,1.0,1.0,72,0.00,,,0.00,357,Wunderground v.1.15,2013-02-02 22:02:00,
2013-02-02 14:08:00,58.2,49.2,31.14,ENE,65,0.0,1.0,72,0.00,,,0.00,304,Wunderground v.1.15,2013-02-02 22:08:00,
2013-02-02 14:14:00,58.4,49.0,31.15,ENE,65,1.0,1.0,71,0.00,,,0.00,339,Wunderground v.1.15,2013-02-02 22:14:00,
2013-02-02 14:20:00,58.5,49.1,31.15,ENE,65,1.0,1.0,71,0.00,,,0.00,374,Wunderground v.1.15,2013-02-02 22:20:00,
2013-02-02 14:26:00,58.6,49.2,31.15,ENE,65,1.0,1.0,71,0.00,,,0.00,390,Wunderground v.1.15,2013-02-02 22:26:00,
2013-02-02 14:32:00,58.6,49.2,31.14,ENE,65,1.0,1.0,71,0.00,,,0.00,380,Wunderground v.1.15,2013-02-02 22:32:00,
2013-02-02 14:38:00,58.8,49.4,31.14,ENE,65,1.0,1.0,71,0.00,,,0.00,325,Wunderground v.1.15,2013-02-02 22:38:00,
2013-02-02 14:44:00,59.0,49.6,31.14,ENE,65,0.0,1.0,71,0.00,,,0.00,241,Wunderground v.1.15,2013-02-02 22:44:00,
2013-02-02 14:50:00,59.0,49.2,31.14,ENE,65,1.0,1.0,70,0.00,,,0.00,243,Wunderground v.1.15,2013-02-02 22:50:00,
2013-02-02 14:56:00,59.0,49.2,31.15,ENE,64,1.0,1.0,70,0.00,,,0.00,218,Wunderground v.1.15,2013-02-02 22:56:00,
2013-02-02 15:02:00,59.0,49.2,31.14,ENE,65,1.0,2.0,70,0.00,,,0.00,202,Wunderground v.1.15,2013-02-02 23:02:00,
2013-02-02 15:08:00,58.9,49.1,31.15,ENE,65,1.0,2.0,70,0.00,,,0.00,200,Wunderground v.1.15,2013-02-02 23:08:00,
2013-02-02 15:14:00,58.6,48.8,31.14,ENE,65,1.0,3.0,70,0.00,,,0.00,190,Wunderground v.1.15,2013-02-02 23:14:00,
2013-02-02 15:20:00,58.4,48.7,31.15,ENE,65,1.0,1.0,70,0.00,,,0.00,181,Wunderground v.1.15,2013-02-02 23:20:00,
2013-02-02 15:26:00,58.2,48.8,31.15,ENE,64,1.0,4.0,71,0.00,,,0.00,172,Wunderground v.1.15,2013-02-02 23:26:00,
2013-02-02 15:32:00,57.7,48.4,31.15,ENE,64,1.0,3.0,71,0.00,,,0.00,162,Wunderground v.1.15,2013-02-02 23:32:00,
2013-02-02 15:38:00,57.6,48.3,31.15,ENE,65,1.0,3.0,71,0.00,,,0.00,156,Wunderground v.1.15,2013-02-02 23:38:00,
2013-02-02 15:44:00,57.5,48.5,31.15,ENE,65,0.0,1.0,72,0.00,,,0.00,156,Wunderground v.1.15,2013-02-02 23:44:00,
2013-02-02 15:50:00,57.4,48.4,31.14,ENE,65,0.0,0.0,72,0.00,,,0.00,171,Wunderground v.1.15,2013-02-02 23:50:00,
2013-02-02 15:56:00,57.3,48.3,31.14,ENE,65,0.0,1.0,72,0.00,,,0.00,181,Wunderground v.1.15,2013-02-02 23:56:00,
2013-02-02 16:02:00,57.2,48.3,31.14,ENE,64,0.0,2.0,72,0.00,,,0.00,153,Wunderground v.1.15,2013-02-03 00:02:00,
2013-02-02 16:08:00,57.1,48.2,31.14,ENE,65,0.0,2.0,72,0.00,,,0.00,153,Wunderground v.1.15,2013-02-03 00:08:00,
2013-02-02 16:14:00,57.0,48.1,31.14,ENE,65,1.0,2.0,72,0.00,,,0.00,130,Wunderground v.1.15,2013-02-03 00:14:00,
2013-02-02 16:20:00,56.9,48.0,31.14,ENE,65,1.0,1.0,72,0.00,,,0.00,111,Wunderground v.1.15,2013-02-03 00:20:00,
2013-02-02 16:26:00,56.8,47.9,31.14,ENE,64,0.0,1.0,72,0.00,,,0.00,86,Wunderground v.1.15,2013-02-03 00:26:00,
2013-02-02 16:32:00,56.6,47.7,31.14,ENE,65,0.0,0.0,72,0.00,,,0.00,77,Wunderground v.1.15,2013-02-03 00:32:00,
2013-02-02 16:38:00,56.4,47.5,31.14,ENE,65,0.0,1.0,72,0.00,,,0.00,67,Wunderground v.1.15,2013-02-03 00:38:00,
2013-02-02 16:44:00,56.3,47.8,31.14,ENE,64,0.0,0.0,73,0.00,,,0.00,70,Wunderground v.1.15,2013-02-03 00:44:00,
2013-02-02 16:50:00,56.2,47.7,31.14,ENE,65,0.0,0.0,73,0.00,,,0.00,70,Wunderground v.1.15,2013-02-03 00:50:00,
2013-02-02 16:56:00,56.1,47.6,31.14,ENE,64,0.0,0.0,73,0.00,,,0.00,46,Wunderground v.1.15,2013-02-03 00:56:00,
2013-02-02 17:02:00,55.9,47.7,31.14,ENE,65,0.0,0.0,74,0.00,,,0.00,37,Wunderground v.1.15,2013-02-03 01:02:00,
2013-02-02 17:08:00,55.8,47.6,31.14,ENE,65,0.0,0.0,74,0.00,,,0.00,28,Wunderground v.1.15,2013-02-03 01:08:00,
2013-02-02 17:14:00,55.6,47.8,31.14,ENE,64,0.0,0.0,75,0.00,,,0.00,19,Wunderground v.1.15,2013-02-03 01:14:00,
2013-02-02 17:20:00,55.4,47.6,31.14,ENE,65,0.0,0.0,75,0.00,,,0.00,14,Wunderground v.1.15,2013-02-03 01:20:00,
2013-02-02 17:26:00,55.1,47.3,31.14,ENE,64,0.0,0.0,75,0.00,,,0.00,11,Wunderground v.1.15,2013-02-03 01:26:00,
2013-02-02 17:32:00,54.9,47.1,31.14,ENE,65,0.0,0.0,75,0.00,,,0.00,5,Wunderground v.1.15,2013-02-03 01:32:00,
2013-02-02 17:38:00,54.7,47.3,31.14,ENE,64,0.0,0.0,76,0.00,,,0.00,7,Wunderground v.1.15,2013-02-03 01:38:00,
2013-02-02 17:44:00,54.5,47.1,31.14,ENE,65,0.0,0.0,76,0.00,,,0.00,5,Wunderground v.1.15,2013-02-03 01:44:00,
2013-02-02 17:50:00,54.3,46.9,31.14,ENE,65,0.0,0.0,76,0.00,,,0.00,0,Wunderground v.1.15,2013-02-03 01:50:00,
2013-02-02 17:56:00,54.1,46.7,31.14,ENE,64,0.0,0.0,76,0.00,,,0.00,0,Wunderground v.1.15,2013-02-03 01:56:00,
2013-02-02 18:02:00,53.8,46.8,31.14,ENE,65,0.0,0.0,77,0.00,,,0.00,0,Wunderground v.1.15,2013-02-03 02:02:00,
2013-02-02 18:08:00,53.6,46.6,31.15,ENE,64,0.0,0.0,77,0.00,,,0.00,0,Wunderground v.1.15,2013-02-03 02:08:00,
2013-02-02 18:14:00,53.4,46.4,31.15,ENE,64,0.0,0.0,77,0.00,,,0.00,0,Wunderground v.1.15,2013-02-03 02:14:00,
2013-02-02 18:20:00,53.2,46.2,31.15,ENE,64,0.0,0.0,77,0.00,,,0.00,0,Wunderground v.1.15,2013-02-03 02:20:00,
2013-02-02 18:26:00,52.9,45.9,31.15,ENE,65,0.0,0.0,77,0.00,,,0.00,0,Wunderground v.1.15,2013-02-03 02:26:00,
2013-02-02 18:32:00,52.7,45.7,31.15,ENE,65,0.0,0.0,77,0.00,,,0.00,0,Wunderground v.1.15,2013-02-03 02:32:00,
2013-02-02 18:38:00,52.4,45.4,31.15,ENE,64,0.0,0.0,77,0.00,,,0.00,0,Wunderground v.1.15,2013-02-03 02:38:00,
2013-02-02 18:44:00,52.2,45.2,31.16,ENE,65,0.0,0.0,77,0.00,,,0.00,0,Wunderground v.1.15,2013-02-03 02:44:00,
2013-02-02 18:50:00,52.0,45.4,31.15,ENE,65,0.0,0.0,78,0.00,,,0.00,0,Wunderground v.1.15,2013-02-03 02:50:00,
2013-02-02 18:56:00,51.7,45.1,31.15,ENE,65,0.0,0.0,78,0.00,,,0.00,0,Wunderground v.1.15,2013-02-03 02:56:00,
2013-02-02 19:02:00,51.4,44.8,31.15,ENE,64,0.0,0.0,78,0.00,,,0.00,0,Wunderground v.1.15,2013-02-03 03:02:00,
2013-02-02 19:08:00,51.2,44.9,31.15,ENE,65,0.0,0.0,79,0.00,,,0.00,0,Wunderground v.1.15,2013-02-03 03:08:00,
2013-02-02 19:14:00,50.9,44.6,31.15,ENE,65,0.0,0.0,79,0.00,,,0.00,0,Wunderground v.1.15,2013-02-03 03:14:00,
2013-02-02 19:20:00,50.7,44.4,31.15,ENE,64,0.0,0.0,79,0.00,,,0.00,0,Wunderground v.1.15,2013-02-03 03:20:00,
2013-02-02 19:26:00,50.5,44.2,31.15,ENE,65,0.0,0.0,79,0.00,,,0.00,0,Wunderground v.1.15,2013-02-03 03:26:00,
2013-02-02 19:32:00,50.2,43.9,31.15,ENE,65,0.0,0.0,79,0.00,,,0.00,0,Wunderground v.1.15,2013-02-03 03:32:00,
2013-02-02 19:38:00,49.9,43.6,31.16,ENE,65,0.0,0.0,79,0.00,,,0.00,0,Wunderground v.1.15,2013-02-03 03:38:00,
2013-02-02 19:44:00,49.6,43.4,31.16,ENE,65,0.0,0.0,79,0.00,,,0.00,0,Wunderground v.1.15,2013-02-03 03:44:00,
2013-02-02 19:50:00,49.3,43.4,31.16,ENE,65,0.0,0.0,80,0.00,,,0.00,0,Wunderground v.1.15,2013-02-03 03:50:00,
2013-02-02 19:56:00,49.1,43.2,31.16,ENE,64,0.0,0.0,80,0.00,,,0.00,0,Wunderground v.1.15,2013-02-03 03:56:00,
2013-02-02 20:02:00,48.9,43.3,31.16,ENE,65,0.0,0.0,81,0.00,,,0.00,0,Wunderground v.1.15,2013-02-03 04:02:00,
2013-02-02 20:08:00,48.8,43.2,31.16,ENE,65,0.0,0.0,81,0.00,,,0.00,0,Wunderground v.1.15,2013-02-03 04:08:00,
2013-02-02 20:14:00,48.6,43.0,31.16,ENE,64,0.0,0.0,81,0.00,,,0.00,0,Wunderground v.1.15,2013-02-03 04:14:00,
2013-02-02 20:20:00,48.4,43.2,31.16,ENE,64,0.0,0.0,82,0.00,,,0.00,0,Wunderground v.1.15,2013-02-03 04:20:00,
2013-02-02 20:26:00,48.2,43.0,31.16,ENE,64,0.0,0.0,82,0.00,,,0.00,0,Wunderground v.1.15,2013-02-03 04:26:00,
2013-02-02 20:32:00,47.9,42.7,31.15,ENE,65,0.0,0.0,82,0.00,,,0.00,0,Wunderground v.1.15,2013-02-03 04:32:00,
2013-02-02 20:38:00,47.7,42.5,31.15,ENE,64,0.0,0.0,82,0.00,,,0.00,0,Wunderground v.1.15,2013-02-03 04:38:00,
2013-02-02 20:44:00,47.4,42.2,31.15,ENE,65,0.0,0.0,82,0.00,,,0.00,0,Wunderground v.1.15,2013-02-03 04:44:00,
2013-02-02 20:50:00,47.2,42.3,31.16,ENE,64,0.0,0.0,83,0.00,,,0.00,0,Wunderground v.1.15,2013-02-03 04:50:00,
2013-02-02 20:56:00,47.1,42.2,31.16,ENE,64,0.0,0.0,83,0.00,,,0.00,0,Wunderground v.1.15,2013-02-03 04:56:00,
2013-02-02 21:02:00,46.9,42.0,31.16,ENE,64,0.0,0.0,83,0.00,,,0.00,0,Wunderground v.1.15,2013-02-03 05:02:00,
2013-02-02 21:04:00,46.8,41.9,31.16,ENE,65,0.0,0.0,83,0.00,,,0.00,0,Wunderground v.1.15,2013-02-03 05:04:00,
2013-02-02 21:08:00,46.6,41.7,31.16,ENE,64,0.0,0.0,83,0.00,,,0.00,0,Wunderground v.1.15,2013-02-03 05:08:00,
2013-02-02 21:14:00,46.5,41.6,31.16,ENE,65,0.0,0.0,83,0.00,,,0.00,0,Wunderground v.1.15,2013-02-03 05:14:00,
2013-02-02 21:16:00,46.4,41.8,31.16,ENE,65,0.0,0.0,84,0.00,,,0.00,0,Wunderground v.1.15,2013-02-03 05:16:00,
2013-02-02 21:22:00,46.3,41.7,31.16,ENE,65,0.0,0.0,84,0.00,,,0.00,0,Wunderground v.1.15,2013-02-03 05:22:00,
2013-02-02 21:28:00,46.2,41.6,31.16,ENE,64,0.0,0.0,84,0.00,,,0.00,0,Wunderground v.1.15,2013-02-03 05:28:00,
2013-02-02 21:34:00,46.1,41.5,31.16,ENE,65,0.0,0.0,84,0.00,,,0.00,0,Wunderground v.1.15,2013-02-03 05:34:00,
2013-02-02 21:40:00,46.0,41.4,31.16,ENE,65,0.0,0.0,84,0.00,,,0.00,0,Wunderground v.1.15,2013-02-03 05:40:00,
2013-02-02 21:46:00,46.0,41.4,31.16,ENE,65,0.0,0.0,84,0.00,,,0.00,0,Wunderground v.1.15,2013-02-03 05:46:00,
2013-02-02 21:52:00,46.0,41.7,31.16,ENE,64,0.0,0.0,85,0.00,,,0.00,0,Wunderground v.1.15,2013-02-03 05:52:00,
2013-02-02 21:58:00,46.0,41.7,31.16,ENE,65,0.0,0.0,85,0.00,,,0.00,0,Wunderground v.1.15,2013-02-03 05:58:00,
2013-02-02 22:04:00,46.0,41.7,31.16,ENE,64,0.0,0.0,85,0.00,,,0.00,0,Wunderground v.1.15,2013-02-03 06:04:00,
2013-02-02 22:10:00,46.1,41.8,31.16,ENE,65,0.0,0.0,85,0.00,,,0.00,0,Wunderground v.1.15,2013-02-03 06:10:00,
2013-02-02 22:16:00,46.2,41.9,31.16,ENE,65,0.0,0.0,85,0.00,,,0.00,0,Wunderground v.1.15,2013-02-03 06:16:00,
2013-02-02 22:22:00,46.3,42.0,31.16,ENE,65,0.0,0.0,85,0.00,,,0.00,0,Wunderground v.1.15,2013-02-03 06:22:00,
2013-02-02 22:28:00,46.3,42.0,31.16,ENE,65,0.0,0.0,85,0.00,,,0.00,0,Wunderground v.1.15,2013-02-03 06:28:00,
2013-02-02 22:34:00,46.3,42.0,31.16,ENE,65,0.0,0.0,85,0.00,,,0.00,0,Wunderground v.1.15,2013-02-03 06:34:00,
2013-02-02 22:40:00,46.3,42.3,31.16,ENE,65,0.0,0.0,86,0.00,,,0.00,0,Wunderground v.1.15,2013-02-03 06:40:00,
2013-02-02 22:46:00,46.5,42.5,31.16,ENE,64,0.0,0.0,86,0.00,,,0.00,0,Wunderground v.1.15,2013-02-03 06:46:00,
2013-02-02 22:52:00,46.7,42.7,31.16,ENE,64,0.0,0.0,86,0.00,,,0.00,0,Wunderground v.1.15,2013-02-03 06:52:00,
2013-02-02 22:58:00,46.8,42.8,31.16,ENE,64,0.0,0.0,86,0.00,,,0.00,0,Wunderground v.1.15,2013-02-03 06:58:00,
2013-02-02 23:04:00,47.0,43.3,31.16,ENE,65,0.0,0.0,87,0.00,,,0.00,0,Wunderground v.1.15,2013-02-03 07:04:00,
2013-02-02 23:10:00,47.1,43.4,31.17,ENE,64,0.0,0.0,87,0.00,,,0.00,0,Wunderground v.1.15,2013-02-03 07:10:00,
2013-02-02 23:16:00,47.2,43.2,31.17,ENE,64,0.0,0.0,86,0.00,,,0.00,0,Wunderground v.1.15,2013-02-03 07:16:00,
2013-02-02 23:22:00,47.2,43.5,31.17,ENE,64,0.0,0.0,87,0.00,,,0.00,0,Wunderground v.1.15,2013-02-03 07:22:00,
2013-02-02 23:28:00,47.4,43.7,31.17,ENE,64,0.0,0.0,87,0.00,,,0.00,0,Wunderground v.1.15,2013-02-03 07:28:00,
2013-02-02 23:36:00,47.7,44.0,31.17,ENE,65,0.0,0.0,87,0.00,,,0.00,0,Wunderground v.1.15,2013-02-03 07:36:00,
2013-02-02 23:42:00,47.8,44.1,31.17,ENE,65,0.0,0.0,87,0.00,,,0.00,0,Wunderground v.1.15,2013-02-03 07:42:00,
2013-02-02 23:48:00,47.9,44.2,31.17,ENE,64,0.0,0.0,87,0.00,,,0.00,0,Wunderground v.1.15,2013-02-03 07:48:00,
2013-02-02 23:54:00,48.0,44.3,31.17,ENE,64,0.0,0.0,87,0.00,,,0.00,0,Wunderground v.1.15,2013-02-03 07:54:00,